CW2157 Weather Reports


time (UTC)temp
C
wind
direction
speed
KPH
gust
KPH
rain 1hr
cm
rain 24hr
cm
rain mn
cm
humidity
%
barometer
mb
20260505102205 16 209 16.1 24.1 0.00 0.00 0.00 72 1010.6
20260505101705 16 204 11.3 24.1 0.00 0.00 0.00 72 1010.5
20260505101205 16 196 16.1 24.1 0.00 0.00 0.00 71 1010.5
20260505100705 16 210 16.1 25.7 0.00 0.00 0.00 71 1010.5
20260505100205 16 207 16.1 24.1 0.00 0.00 0.00 71 1010.4
20260505095705 16 201 16.1 24.1 0.00 0.00 0.00 71 1010.4
20260505095204 16 206 16.1 24.1 0.00 0.00 0.00 72 1010.4
20260505094704 16 213 16.1 20.9 0.00 0.00 0.00 71 1010.3
20260505094205 16 196 17.7 25.7 0.00 0.00 0.00 72 1010.4
20260505093705 16 184 9.7 19.3 0.00 0.00 0.00 73 1010.3
20260505093205 16 193 14.5 19.3 0.00 0.00 0.00 72 1010.4
20260505092705 16 205 12.9 22.5 0.00 0.00 0.00 73 1010.3
20260505092205 16 171 9.7 19.3 0.00 0.00 0.00 74 1010.3
20260505091705 16 187 12.9 22.5 0.00 0.00 0.00 74 1010.3
20260505091204 16 195 14.5 19.3 0.00 0.00 0.00 73 1010.2
20260505090705 16 204 11.3 20.9 0.00 0.00 0.00 73 1010.2
20260505090204 16 182 12.9 19.3 0.00 0.00 0.00 73 1010.2
20260505085705 16 196 12.9 19.3 0.00 0.00 0.00 73 1010.2
20260505085205 16 190 14.5 22.5 0.00 0.00 0.00 73 1010.2
20260505084705 16 208 14.5 22.5 0.00 0.00 0.00 73 1010.2
20260505084204 16 196 12.9 24.1 0.00 0.00 0.00 73 1010.2
20260505083205 16 210 14.5 22.5 0.00 0.00 0.00 74 1010.2
20260505082705 16 197 12.9 20.9 0.00 0.00 0.00 75 1010.2
20260505082205 16 191 16.1 25.7 0.00 0.00 0.00 75 1010.1
20260505081705 16 195 14.5 25.7 0.00 0.00 0.00 75 1010.2
20260505081205 16 190 14.5 22.5 0.00 0.00 0.00 74 1010.3
20260505080705 16 210 14.5 22.5 0.00 0.00 0.00 73 1010.2
20260505080205 16 198 16.1 24.1 0.00 0.00 0.00 73 1010.1
20260505075705 16 207 16.1 22.5 0.00 0.00 0.00 72 1010.1
20260505075205 16 204 16.1 27.4 0.00 0.00 0.00 72 1010.2
20260505073705 16 210 20.9 29.0 0.00 0.00 0.00 71 1010.1
20260505073205 16 205 19.3 29.0 0.00 0.00 0.00 70 1010.1
20260505072705 17 206 19.3 29.0 0.00 0.00 0.00 70 1010.1
20260505072205 17 209 19.3 27.4 0.00 0.00 0.00 70 1010.0
20260505070704 17 208 17.7 27.4 0.00 0.00 0.00 68 1010.1
20260505065704 17 199 16.1 27.4 0.00 0.00 0.00 67 1010.2
20260505065204 17 197 19.3 32.2 0.00 0.00 0.00 66 1010.1
20260505064705 17 212 20.9 29.0 0.00 0.00 0.00 66 1010.1
20260505064204 17 201 20.9 25.7 0.00 0.00 0.00 66 1010.1
20260505063705 17 205 19.3 32.2 0.00 0.00 0.00 66 1010.1
20260505063205 17 199 19.3 25.7 0.00 0.00 0.00 66 1010.1
20260505062705 17 197 20.9 40.2 0.00 0.00 0.00 66 1010.0
20260505062204 17 200 22.5 32.2 0.00 0.00 0.00 66 1010.0
20260505061704 17 207 20.9 33.8 0.00 0.00 0.00 66 1010.0
20260505061205 17 192 17.7 24.1 0.00 0.00 0.00 66 1010.0
20260505060704 17 192 20.9 32.2 0.00 0.00 0.00 67 1010.0
20260505060205 17 190 19.3 29.0 0.00 0.00 0.00 68 1010.0
20260505055705 17 196 17.7 25.7 0.00 0.00 0.00 68 1010.0
20260505055204 17 186 16.1 25.7 0.00 0.00 0.00 68 1010.0
20260505054704 17 195 17.7 22.5 0.00 0.00 0.00 69 1010.1
20260505054204 17 189 14.5 22.5 0.00 0.00 0.00 69 1010.0
20260505053704 17 192 16.1 20.9 0.00 0.00 0.00 70 1010.1
20260505052704 17 196 14.5 22.5 0.00 0.00 0.00 69 1010.1
20260505052204 17 200 16.1 24.1 0.00 0.00 0.00 69 1010.1
20260505051704 17 192 14.5 25.7 0.00 0.00 0.00 69 1010.1
20260505051205 17 182 14.5 25.7 0.00 0.00 0.00 69 1009.9
20260505050705 17 189 12.9 24.1 0.00 0.00 0.00 68 1010.0
20260505050204 17 198 16.1 24.1 0.00 0.00 0.00 67 1010.0
20260505041205 17 191 14.5 24.1 0.00 0.00 0.00 64 1009.9
20260505040705 17 200 14.5 20.9 0.00 0.00 0.00 65 1009.9
20260505035705 17 199 12.9 20.9 0.00 0.00 0.00 65 1009.9
20260505035205 17 203 14.5 24.1 0.00 0.00 0.00 65 1009.9
20260505034704 17 203 14.5 24.1 0.00 0.00 0.00 66 1009.8
20260505034205 18 201 12.9 20.9 0.00 0.00 0.00 66 1009.9
20260505033705 18 192 12.9 20.9 0.00 0.00 0.00 66 1009.8
20260505033205 18 194 12.9 19.3 0.00 0.00 0.00 66 1009.8
20260505032705 18 200 14.5 19.3 0.00 0.00 0.00 66 1009.9
20260505032204 18 201 14.5 24.1 0.00 0.00 0.00 65 1009.8
20260505031705 18 192 16.1 22.5 0.00 0.00 0.00 65 1009.8
20260505031205 18 188 14.5 22.5 0.00 0.00 0.00 65 1009.9
20260505025705 17 184 11.3 19.3 0.00 0.00 0.00 66 1009.6
20260505025205 17 176 9.7 19.3 0.00 0.00 0.00 67 1009.7
20260505024704 17 176 11.3 20.9 0.00 0.00 0.00 67 1009.7
20260505024204 18 191 11.3 22.5 0.00 0.00 0.00 66 1009.8
20260505023204 18 184 9.7 19.3 0.00 0.00 0.00 66 1009.8
20260505022204 18 185 11.3 19.3 0.00 0.00 0.00 66 1009.7
20260505021704 18 181 9.7 20.9 0.00 0.00 0.00 66 1009.7
20260505021205 18 181 12.9 19.3 0.00 0.00 0.00 66 1009.7
20260505020705 18 196 11.3 19.3 0.00 0.00 0.00 66 1009.8
20260505020204 18 185 11.3 22.5 0.00 0.00 0.00 65 1009.7
20260505015705 18 190 14.5 24.1 0.00 0.00 0.00 65 1009.8
20260505015204 18 198 14.5 24.1 0.00 0.00 0.00 65 1009.9
20260505014704 18 198 12.9 20.9 0.00 0.00 0.00 64 1009.8
20260505014204 18 186 14.5 20.9 0.00 0.00 0.00 63 1009.8
20260505013705 18 192 11.3 22.5 0.00 0.00 0.00 63 1009.8
20260505013204 18 206 11.3 29.0 0.00 0.00 0.00 61 1009.8
20260505012704 18 199 11.3 22.5 0.00 0.00 0.00 60 1009.8
20260505012204 18 198 12.9 27.4 0.00 0.00 0.00 59 1009.7
20260505011704 19 171 14.5 25.7 0.00 0.00 0.00 56 1009.6
20260505011205 19 186 12.9 19.3 0.00 0.00 0.00 55 1009.4
20260505010205 19 171 9.7 22.5 0.00 0.00 0.00 53 1009.4
20260505005705 19 186 11.3 22.5 0.00 0.00 0.00 54 1009.2
20260505005204 19 193 11.3 24.1 0.00 0.00 0.00 54 1009.2
20260505004704 19 193 11.3 19.3 0.00 0.00 0.00 54 1009.2
20260505004204 19 194 9.7 14.5 0.00 0.00 0.00 54 1009.2
20260505003704 19 188 8.0 14.5 0.00 0.00 0.00 53 1009.1
20260505003205 19 191 6.4 14.5 0.00 0.00 0.00 54 1009.2
20260505002204 19 193 8.0 11.3 0.00 0.00 0.00 54 1009.2
20260505001705 20 190 8.0 14.5 0.00 0.00 0.00 52 1009.2
20260505001204 20 185 6.4 11.3 0.00 0.00 0.00 54 1009.2
20260505000705 20 190 6.4 11.3 0.00 0.00 0.00 52 1009.2
20260505000205 20 201 9.7 16.1 0.00 0.00 0.00 53 1009.2
20260504235205 20 200 9.7 19.3 0.00 0.00 0.00 51 1009.2
20260504234705 20 182 11.3 16.1 0.00 0.00 0.00 51 1009.2
20260504234204 20 205 12.9 22.5 0.00 0.00 0.00 53 1009.2
20260504233704 20 209 12.9 19.3 0.00 0.00 0.00 54 1009.2
20260504232205 20 204 14.5 22.5 0.00 0.00 0.00 50 1009.1
20260504231704 21 195 14.5 25.7 0.00 0.00 0.00 48 1009.0
20260504230205 21 181 11.3 24.1 0.00 0.00 0.00 47 1009.0
20260504225705 21 183 14.5 25.7 0.00 0.00 0.00 47 1009.1
20260504225204 21 190 16.1 25.7 0.00 0.00 0.00 46 1009.0
20260504224204 21 195 11.3 29.0 0.00 0.00 0.00 45 1009.0
20260504223705 21 170 16.1 32.2 0.00 0.00 0.00 43 1009.0
20260504223204 21 198 14.5 25.7 0.00 0.00 0.00 44 1008.9
20260504222704 21 192 14.5 24.1 0.00 0.00 0.00 43 1009.0
20260504222204 21 163 16.1 27.4 0.00 0.00 0.00 43 1009.0
20260504221204 21 186 14.5 24.1 0.00 0.00 0.00 41 1009.1
20260504220705 21 196 16.1 24.1 0.00 0.00 0.00 44 1009.2
20260504220205 21 193 14.5 25.7 0.00 0.00 0.00 44 1009.1
20260504215704 22 182 16.1 29.0 0.00 0.00 0.00 44 1009.1
20260504215204 22 195 16.1 25.7 0.00 0.00 0.00 42 1009.1
20260504214704 22 181 16.1 25.7 0.00 0.00 0.00 41 1009.1
20260504214204 22 198 17.7 32.2 0.00 0.00 0.00 41 1009.0
20260504213704 23 170 17.7 32.2 0.00 0.00 0.00 40 1009.2
20260504213205 23 183 11.3 24.1 0.00 0.00 0.00 41 1009.1
20260504212204 23 190 16.1 32.2 0.00 0.00 0.00 41 1009.2
20260504211705 23 194 14.5 27.4 0.00 0.00 0.00 41 1009.3
20260504211205 23 201 14.5 22.5 0.00 0.00 0.00 42 1009.3
20260504210704 23 185 16.1 27.4 0.00 0.00 0.00 42 1009.2
20260504205704 23 200 12.9 20.9 0.00 0.00 0.00 40 1009.3
20260504205204 23 182 14.5 27.4 0.00 0.00 0.00 40 1009.2
20260504204704 23 202 16.1 24.1 0.00 0.00 0.00 41 1009.3
20260504204204 23 204 14.5 25.7 0.00 0.00 0.00 39 1009.3
20260504203704 23 211 16.1 32.2 0.00 0.00 0.00 39 1009.3
20260504203204 23 187 19.3 32.2 0.00 0.00 0.00 38 1009.3
20260504202704 23 194 16.1 27.4 0.00 0.00 0.00 40 1009.4
20260504202204 23 202 16.1 33.8 0.00 0.00 0.00 37 1009.5
20260504201704 23 209 16.1 32.2 0.00 0.00 0.00 42 1009.6
20260504201204 23 196 17.7 29.0 0.00 0.00 0.00 40 1009.6
20260504200704 23 193 16.1 32.2 0.00 0.00 0.00 39 1009.6
20260504200204 23 205 16.1 22.5 0.00 0.00 0.00 41 1009.7
20260504195204 23 205 16.1 32.2 0.00 0.00 0.00 38 1009.9
20260504194704 23 210 14.5 20.9 0.00 0.00 0.00 38 1009.9
20260504194204 23 209 14.5 25.7 0.00 0.00 0.00 40 1010.0
20260504193704 23 213 17.7 25.7 0.00 0.00 0.00 39 1010.2
20260504193204 23 204 14.5 25.7 0.00 0.00 0.00 39 1010.2
20260504192704 23 195 19.3 27.4 0.00 0.00 0.00 40 1010.3
20260504192204 22 202 14.5 19.3 0.00 0.00 0.00 41 1010.3
20260504191704 22 187 14.5 24.1 0.00 0.00 0.00 40 1010.4
20260504191204 22 192 11.3 20.9 0.00 0.00 0.00 42 1010.4
20260504190204 22 204 14.5 20.9 0.00 0.00 0.00 41 1010.5
20260504185704 22 194 11.3 25.7 0.00 0.00 0.00 39 1010.6
20260504185204 22 200 16.1 27.4 0.00 0.00 0.00 37 1010.7
20260504184704 22 201 19.3 27.4 0.00 0.00 0.00 40 1010.8
20260504184204 22 177 16.1 27.4 0.00 0.00 0.00 36 1010.9
20260504183704 22 202 14.5 20.9 0.00 0.00 0.00 41 1011.0
20260504183204 22 189 17.7 29.0 0.00 0.00 0.00 37 1011.1
20260504182204 22 194 17.7 25.7 0.00 0.00 0.00 37 1011.2
20260504181204 22 195 14.5 25.7 0.00 0.00 0.00 39 1011.2
20260504180704 22 206 16.1 22.5 0.00 0.00 0.00 39 1011.3
20260504180204 22 195 16.1 22.5 0.00 0.00 0.00 40 1011.4
20260504175705 22 207 14.5 20.9 0.00 0.00 0.00 39 1011.5
20260504175204 22 199 14.5 20.9 0.00 0.00 0.00 41 1011.6
20260504174704 21 204 14.5 19.3 0.00 0.00 0.00 43 1011.6
20260504174204 21 202 14.5 20.9 0.00 0.00 0.00 40 1011.7
20260504173704 21 208 12.9 24.1 0.00 0.00 0.00 40 1011.7
20260504173204 21 210 12.9 22.5 0.00 0.00 0.00 39 1011.7
20260504172704 21 209 16.1 24.1 0.00 0.00 0.00 39 1011.7
20260504171704 21 210 12.9 19.3 0.00 0.00 0.00 40 1011.8
20260504171204 21 179 12.9 19.3 0.00 0.00 0.00 41 1011.7
20260504170704 21 175 9.7 16.1 0.00 0.00 0.00 43 1011.8
20260504170205 21 203 11.3 19.3 0.00 0.00 0.00 43 1011.8
20260504160204 20 160 9.7 19.3 0.00 0.00 0.00 44 1012.6
20260504150204 20 199 14.5 19.3 0.00 0.00 0.00 49 1013.1
20260504141204 17 202 14.5 19.3 0.00 0.00 0.00 53 1013.2
20260504140704 17 202 11.3 14.5 0.00 0.00 0.00 51 1013.2
20260504120203 15 207 16.1 22.5 0.00 0.00 0.00 63 1013.9
20260504110704 12 210 14.5 20.9 0.00 0.00 0.00 69 1014.2
20260504110204 12 193 16.1 20.9 0.00 0.00 0.00 69 1014.4